GFSSW_prec_precacc_333.txt.gz
Total_Precipitation_Accumulation
0.10 0.08 0.08 0.08 0.07 0.06 0.03 0.03 0.02 0.01 0.01 0.01 0.01 0.00 0.00 0.00 0.00 0.00 0.00 0.00 0.00 0.00 0.02 0.16 0.55 0.56 0.62 0.90 0.97 1.29 1.89 0.55 0.15 0.26 0.08 0.02 0.04 0.03 0.02 0.00 0.02 0.05 0.15 0.03 0.01
0.10 0.08 0.08 0.08 0.06 0.05 0.04 0.03 0.01 0.01 0.01 0.01 0.01 0.00 0.00 0.00 0.00 0.00 0.00 0.00 0.00 0.00 0.07 0.18 0.42 0.38 1.62 1.06 0.97 1.07 1.00 0.20 0.13 0.12 0.10 0.03 0.03 0.03 0.04 0.04 0.11 0.00 0.02 0.00 0.00
0.08 0.08 0.07 0.07 0.06 0.05 0.04 0.03 0.01 0.01 0.00 0.01 0.01 0.00 0.00 0.00 0.00 0.00 0.00 0.01 0.01 0.05 0.09 0.22 0.39 0.32 1.00 0.55 0.98 0.32 0.37 0.04 0.03 0.02 0.03 0.07 0.01 0.03 0.07 0.17 0.12 0.00 0.00 0.00 0.00
0.08 0.07 0.07 0.07 0.06 0.06 0.04 0.02 0.01 0.00 0.01 0.01 0.00 0.00 0.00 0.00 0.00 0.01 0.04 0.02 0.02 0.04 0.06 0.40 0.98 0.99 0.28 0.32 0.15 0.35 0.08 0.02 0.01 0.02 0.04 0.04 0.01 0.03 0.02 0.04 0.00 0.00 0.00 0.00 0.01
0.07 0.07 0.06 0.06 0.06 0.05 0.04 0.02 0.01 0.00 0.01 0.01 0.00 0.00 0.00 0.00 0.00 0.01 0.01 0.00 0.02 0.00 0.02 0.32 0.42 0.26 0.20 0.16 0.16 0.15 0.04 0.02 0.01 0.06 0.03 0.00 0.03 0.02 0.01 0.04 0.04 0.00 0.00 0.00 0.00
0.07 0.06 0.05 0.06 0.06 0.04 0.03 0.02 0.01 0.00 0.00 0.00 0.00 0.00 0.00 0.00 0.00 0.01 0.00 0.00 0.01 0.01 0.02 0.03 0.02 0.01 0.08 0.09 0.19 0.09 0.03 0.02 0.02 0.03 0.02 0.01 0.01 0.01 0.01 0.05 0.06 0.02 0.00 0.00 0.01
0.07 0.06 0.06 0.05 0.05 0.04 0.02 0.01 0.00 0.00 0.00 0.00 0.00 0.00 0.00 0.00 0.00 0.00 0.00 0.00 0.00 0.01 0.03 0.02 0.00 0.02 0.06 0.14 0.12 0.05 0.06 0.03 0.03 0.05 0.02 0.03 0.03 0.05 0.06 0.02 0.02 0.02 0.06 0.12 0.15
0.06 0.06 0.06 0.05 0.04 0.03 0.01 0.00 0.00 0.00 0.00 0.00 0.00 0.00 0.00 0.00 0.00 0.00 0.00 0.00 0.00 0.00 0.00 0.00 0.00 0.02 0.10 0.14 0.24 0.17 0.28 0.21 0.10 0.05 0.07 0.10 0.36 0.06 0.02 0.02 0.05 0.12 0.21 0.32 0.31
0.06 0.06 0.05 0.05 0.04 0.03 0.01 0.00 0.00 0.00 0.00 0.00 0.00 0.00 0.00 0.00 0.00 0.00 0.00 0.00 0.00 0.00 0.00 0.00 0.00 0.01 0.05 0.21 0.38 0.23 0.60 0.44 0.26 0.06 0.17 0.22 0.59 0.18 0.03 0.07 0.05 0.17 0.59 0.48 0.36
0.06 0.06 0.04 0.05 0.04 0.03 0.00 0.00 0.00 0.00 0.00 0.00 0.00 0.00 0.00 0.00 0.00 0.00 0.00 0.00 0.00 0.00 0.00 0.00 0.00 0.00 0.07 0.22 0.27 0.18 0.18 0.23 0.38 0.15 0.17 0.27 0.75 0.56 0.08 0.04 0.06 0.29 0.99 0.26 0.19
0.05 0.05 0.05 0.04 0.03 0.03 0.00 0.01 0.00 0.00 0.00 0.00 0.00 0.00 0.00 0.00 0.00 0.00 0.00 0.00 0.00 0.00 0.00 0.00 0.00 0.00 0.02 0.02 0.02 0.04 0.07 0.19 0.29 0.22 0.16 0.27 0.52 0.50 0.11 0.14 0.08 0.19 0.69 0.37 0.11
0.06 0.06 0.05 0.02 0.01 0.01 0.01 0.00 0.00 0.00 0.00 0.00 0.00 0.00 0.00 0.00 0.00 0.00 0.00 0.00 0.00 0.00 0.00 0.00 0.00 0.00 0.00 0.00 0.00 0.00 0.01 0.18 0.16 0.19 0.19 0.43 0.67 0.25 0.16 0.36 0.36 0.12 0.31 0.21 0.27
0.06 0.06 0.05 0.01 0.00 0.00 0.00 0.00 0.00 0.00 0.00 0.00 0.00 0.00 0.00 0.00 0.00 0.00 0.00 0.00 0.00 0.00 0.00 0.00 0.00 0.01 0.00 0.00 0.00 0.00 0.01 0.04 0.10 0.08 0.11 0.15 0.21 0.27 0.26 0.21 0.14 0.09 0.05 0.15 0.30
0.06 0.07 0.05 0.01 0.00 0.00 0.00 0.00 0.00 0.00 0.00 0.00 0.00 0.00 0.00 0.00 0.00 0.00 0.00 0.00 0.00 0.00 0.00 0.00 0.00 0.00 0.00 0.00 0.00 0.00 0.01 0.00 0.03 0.05 0.12 0.09 0.54 0.37 0.39 0.17 0.25 0.14 0.09 0.05 0.11
0.07 0.07 0.07 0.01 0.00 0.00 0.00 0.00 0.00 0.00 0.00 0.00 0.00 0.00 0.00 0.00 0.00 0.00 0.00 0.00 0.00 0.00 0.00 0.00 0.00 0.00 0.00 0.00 0.00 0.00 0.00 0.00 0.00 0.00 0.01 0.03 0.14 0.27 0.43 0.48 0.58 0.28 0.21 0.18 0.12
0.06 0.09 0.09 0.00 0.00 0.00 0.00 0.00 0.00 0.00 0.00 0.00 0.00 0.00 0.00 0.00 0.00 0.00 0.00 0.00 0.00 0.00 0.00 0.00 0.00 0.00 0.00 0.00 0.00 0.00 0.00 0.00 0.00 0.00 0.02 0.02 0.03 0.26 0.25 0.53 0.50 0.47 0.19 0.23 0.60
0.03 0.04 0.07 0.00 0.00 0.00 0.00 0.00 0.00 0.00 0.00 0.00 0.00 0.00 0.00 0.00 0.00 0.00 0.00 0.00 0.00 0.00 0.00 0.00 0.00 0.00 0.00 0.00 0.00 0.00 0.00 0.00 0.00 0.00 0.07 0.03 0.02 0.03 0.03 0.05 0.33 0.26 0.48 1.24 0.82
0.00 0.00 0.00 0.00 0.00 0.00 0.00 0.00 0.00 0.00 0.00 0.00 0.00 0.00 0.00 0.00 0.00 0.00 0.00 0.00 0.00 0.00 0.00 0.00 0.00 0.00 0.00 0.00 0.00 0.00 0.00 0.00 0.00 0.01 0.01 0.01 0.01 0.02 0.07 0.07 0.11 0.36 0.96 1.51 0.76
0.00 0.00 0.00 0.00 0.00 0.00 0.00 0.00 0.00 0.00 0.00 0.00 0.00 0.00 0.00 0.00 0.00 0.00 0.00 0.00 0.00 0.00 0.00 0.00 0.00 0.00 0.00 0.00 0.00 0.00 0.00 0.00 0.00 0.00 0.00 0.00 0.03 0.05 0.07 0.17 0.26 0.46 0.66 0.85 1.02
0.00 0.00 0.00 0.00 0.00 0.00 0.00 0.00 0.00 0.00 0.00 0.00 0.00 0.00 0.00 0.00 0.00 0.00 0.00 0.00 0.00 0.00 0.00 0.00 0.00 0.00 0.00 0.00 0.00 0.00 0.00 0.00 0.00 0.00 0.00 0.00 0.04 0.41 0.43 0.43 0.70 0.33 0.37 0.73 0.84
0.00 0.00 0.00 0.00 0.00 0.00 0.00 0.00 0.00 0.00 0.00 0.00 0.00 0.00 0.00 0.00 0.00 0.00 0.00 0.00 0.00 0.00 0.00 0.00 0.00 0.00 0.00 0.00 0.00 0.00 0.00 0.00 0.00 0.00 0.01 0.02 0.23 0.55 0.44 0.61 0.50 0.24 0.48 0.75 0.79
0.00 0.00 0.00 0.00 0.00 0.00 0.00 0.00 0.00 0.00 0.00 0.00 0.00 0.00 0.00 0.00 0.00 0.00 0.00 0.00 0.00 0.00 0.00 0.00 0.00 0.00 0.00 0.00 0.00 0.00 0.02 0.05 0.02 0.06 0.04 0.01 0.12 0.28 0.32 0.33 0.42 0.89 1.77 1.45 1.07
0.00 0.00 0.00 0.00 0.00 0.00 0.00 0.00 0.00 0.00 0.00 0.00 0.00 0.00 0.00 0.00 0.00 0.00 0.00 0.00 0.00 0.00 0.00 0.00 0.00 0.00 0.00 0.00 0.01 0.04 0.06 0.07 0.02 0.01 0.04 0.21 0.22 0.32 0.44 0.73 1.45 2.57 2.08 1.43 1.41
0.00 0.00 0.00 0.00 0.00 0.00 0.01 0.00 0.03 0.02 0.02 0.02 0.00 0.00 0.00 0.00 0.00 0.00 0.00 0.00 0.00 0.00 0.00 0.00 0.01 0.00 0.01 0.01 0.00 0.00 0.00 0.01 0.02 0.02 0.05 0.23 0.22 0.49 0.64 0.85 2.01 3.36 2.99 2.69 2.53
0.00 0.01 0.06 0.07 0.05 0.02 0.06 0.03 0.06 0.19 0.17 0.10 0.07 0.00 0.00 0.00 0.00 0.00 0.00 0.00 0.00 0.00 0.00 0.00 0.00 0.01 0.01 0.02 0.01 0.01 0.00 0.02 0.01 0.04 0.16 0.09 0.22 1.01 1.62 1.02 1.36 1.69 3.77 3.61 2.61
0.04 0.09 0.06 0.02 0.07 0.06 0.10 0.30 0.35 0.16 0.21 0.20 0.22 0.22 0.02 0.00 0.00 0.00 0.00 0.00 0.00 0.00 0.00 0.00 0.00 0.00 0.01 0.02 0.01 0.03 0.09 0.04 0.02 0.02 0.03 0.04 0.18 0.82 0.66 0.45 0.62 0.85 1.65 2.14 2.08
0.15 0.16 0.19 0.03 0.00 0.15 0.24 0.25 0.28 0.20 0.09 0.23 0.15 0.24 0.08 0.02 0.01 0.00 0.00 0.00 0.00 0.01 0.02 0.04 0.01 0.01 0.00 0.02 0.02 0.05 0.13 0.15 0.22 0.26 0.21 0.35 0.58 0.86 0.78 1.18 0.86 0.81 0.88 0.77 0.89

GFSSW_prec_precacc_336.txt.gz
Total_Precipitation_Accumulation
0.10 0.08 0.08 0.08 0.07 0.06 0.03 0.03 0.02 0.01 0.01 0.01 0.01 0.00 0.00 0.00 0.00 0.00 0.00 0.00 0.00 0.00 0.02 0.16 0.55 0.56 0.62 0.90 0.97 1.30 1.89 0.55 0.16 0.27 0.08 0.02 0.04 0.03 0.02 0.00 0.02 0.05 0.15 0.03 0.01
0.10 0.08 0.08 0.08 0.06 0.05 0.04 0.03 0.01 0.01 0.01 0.01 0.01 0.00 0.00 0.00 0.00 0.00 0.00 0.00 0.00 0.00 0.07 0.18 0.42 0.38 1.62 1.06 0.98 1.22 1.00 0.20 0.13 0.12 0.10 0.03 0.03 0.03 0.04 0.04 0.11 0.00 0.02 0.00 0.00
0.08 0.08 0.07 0.07 0.06 0.05 0.04 0.03 0.01 0.01 0.00 0.01 0.01 0.00 0.00 0.00 0.00 0.00 0.00 0.01 0.01 0.05 0.09 0.22 0.39 0.32 1.00 0.55 1.06 0.49 0.37 0.05 0.03 0.02 0.03 0.07 0.01 0.03 0.07 0.17 0.12 0.00 0.00 0.00 0.00
0.08 0.07 0.07 0.07 0.06 0.06 0.04 0.02 0.01 0.00 0.01 0.01 0.00 0.00 0.00 0.00 0.00 0.01 0.04 0.02 0.02 0.04 0.06 0.40 1.00 1.22 0.47 0.35 0.16 0.35 0.08 0.02 0.01 0.02 0.04 0.04 0.01 0.03 0.02 0.04 0.00 0.00 0.00 0.00 0.01
0.07 0.07 0.06 0.06 0.06 0.05 0.04 0.02 0.01 0.00 0.01 0.01 0.00 0.00 0.00 0.00 0.00 0.01 0.01 0.00 0.02 0.00 0.02 0.32 0.45 0.48 0.22 0.17 0.19 0.16 0.04 0.02 0.01 0.06 0.03 0.00 0.03 0.02 0.01 0.04 0.04 0.00 0.00 0.00 0.00
0.07 0.06 0.05 0.06 0.06 0.04 0.03 0.02 0.01 0.00 0.00 0.00 0.00 0.00 0.00 0.00 0.00 0.01 0.00 0.00 0.01 0.01 0.02 0.03 0.02 0.02 0.08 0.10 0.20 0.09 0.03 0.02 0.02 0.03 0.02 0.01 0.03 0.01 0.01 0.05 0.06 0.02 0.00 0.00 0.01
0.07 0.06 0.06 0.05 0.05 0.04 0.02 0.01 0.00 0.00 0.00 0.00 0.00 0.00 0.00 0.00 0.00 0.00 0.00 0.00 0.00 0.01 0.03 0.02 0.00 0.02 0.06 0.14 0.12 0.05 0.07 0.03 0.03 0.05 0.02 0.03 0.05 0.05 0.06 0.02 0.02 0.02 0.06 0.12 0.15
0.06 0.06 0.06 0.05 0.04 0.03 0.01 0.00 0.00 0.00 0.00 0.00 0.00 0.00 0.00 0.00 0.00 0.00 0.00 0.00 0.00 0.00 0.00 0.00 0.00 0.02 0.10 0.14 0.24 0.17 0.28 0.21 0.10 0.05 0.07 0.10 0.36 0.06 0.02 0.02 0.05 0.12 0.21 0.32 0.31
0.06 0.06 0.05 0.05 0.04 0.03 0.01 0.00 0.00 0.00 0.00 0.00 0.00 0.00 0.00 0.00 0.00 0.00 0.00 0.00 0.00 0.00 0.00 0.00 0.00 0.01 0.05 0.23 0.42 0.23 0.60 0.44 0.26 0.06 0.17 0.22 0.59 0.18 0.03 0.07 0.05 0.17 0.59 0.48 0.36
0.06 0.06 0.04 0.05 0.04 0.03 0.00 0.00 0.00 0.00 0.00 0.00 0.00 0.00 0.00 0.00 0.00 0.00 0.00 0.00 0.00 0.00 0.00 0.00 0.00 0.00 0.07 0.24 0.30 0.18 0.18 0.23 0.38 0.15 0.17 0.27 0.75 0.56 0.08 0.04 0.06 0.29 0.99 0.26 0.19
0.05 0.05 0.05 0.04 0.03 0.03 0.00 0.01 0.00 0.00 0.00 0.00 0.00 0.00 0.00 0.00 0.00 0.00 0.00 0.00 0.00 0.00 0.00 0.00 0.00 0.01 0.10 0.03 0.02 0.04 0.07 0.19 0.29 0.22 0.16 0.27 0.52 0.50 0.11 0.14 0.08 0.19 0.69 0.37 0.11
0.06 0.06 0.05 0.02 0.01 0.01 0.01 0.00 0.00 0.00 0.00 0.00 0.00 0.00 0.00 0.00 0.00 0.00 0.00 0.00 0.00 0.00 0.00 0.00 0.00 0.00 0.04 0.00 0.00 0.00 0.01 0.18 0.16 0.19 0.19 0.43 0.67 0.25 0.16 0.36 0.36 0.12 0.31 0.21 0.27
0.06 0.06 0.05 0.01 0.00 0.00 0.00 0.00 0.00 0.00 0.00 0.00 0.00 0.00 0.00 0.00 0.00 0.00 0.00 0.00 0.00 0.00 0.00 0.00 0.00 0.01 0.00 0.00 0.00 0.00 0.01 0.04 0.10 0.08 0.11 0.15 0.21 0.27 0.26 0.21 0.14 0.09 0.05 0.15 0.30
0.06 0.07 0.05 0.01 0.00 0.00 0.00 0.00 0.00 0.00 0.00 0.00 0.00 0.00 0.00 0.00 0.00 0.00 0.00 0.00 0.00 0.00 0.00 0.00 0.00 0.00 0.00 0.00 0.00 0.00 0.01 0.00 0.03 0.05 0.12 0.09 0.54 0.37 0.39 0.17 0.25 0.14 0.09 0.05 0.11
0.07 0.07 0.07 0.01 0.00 0.00 0.00 0.00 0.00 0.00 0.00 0.00 0.00 0.00 0.00 0.00 0.00 0.00 0.00 0.00 0.00 0.00 0.00 0.00 0.00 0.00 0.00 0.00 0.00 0.00 0.00 0.00 0.00 0.00 0.01 0.03 0.14 0.28 0.43 0.48 0.58 0.28 0.21 0.18 0.12
0.06 0.09 0.09 0.00 0.00 0.00 0.00 0.00 0.00 0.00 0.00 0.00 0.00 0.00 0.00 0.00 0.00 0.00 0.00 0.00 0.00 0.00 0.00 0.00 0.00 0.00 0.00 0.00 0.00 0.00 0.00 0.00 0.00 0.00 0.02 0.02 0.03 0.27 0.25 0.53 0.50 0.47 0.19 0.23 0.60
0.03 0.04 0.07 0.00 0.00 0.00 0.00 0.00 0.00 0.00 0.00 0.00 0.00 0.00 0.00 0.00 0.00 0.00 0.00 0.00 0.00 0.00 0.00 0.00 0.00 0.00 0.00 0.00 0.00 0.00 0.00 0.00 0.00 0.00 0.07 0.03 0.02 0.04 0.03 0.05 0.33 0.26 0.48 1.24 0.82
0.00 0.00 0.00 0.00 0.00 0.00 0.00 0.00 0.00 0.00 0.00 0.00 0.00 0.00 0.00 0.00 0.00 0.00 0.00 0.00 0.00 0.00 0.00 0.00 0.00 0.00 0.00 0.00 0.00 0.00 0.00 0.00 0.00 0.01 0.01 0.01 0.01 0.02 0.07 0.07 0.11 0.36 0.96 1.51 0.76
0.00 0.00 0.00 0.00 0.00 0.00 0.00 0.00 0.00 0.00 0.00 0.00 0.00 0.00 0.00 0.00 0.00 0.00 0.00 0.00 0.00 0.00 0.00 0.00 0.00 0.00 0.00 0.00 0.00 0.00 0.00 0.00 0.00 0.00 0.00 0.00 0.03 0.05 0.07 0.17 0.26 0.46 0.66 0.85 1.02
0.00 0.00 0.00 0.00 0.00 0.00 0.00 0.00 0.00 0.00 0.00 0.00 0.00 0.00 0.00 0.00 0.00 0.00 0.00 0.00 0.00 0.00 0.00 0.00 0.00 0.00 0.00 0.00 0.00 0.00 0.00 0.00 0.00 0.00 0.00 0.00 0.04 0.41 0.43 0.43 0.70 0.33 0.37 0.73 0.84
0.00 0.00 0.00 0.00 0.00 0.00 0.00 0.00 0.00 0.00 0.00 0.00 0.00 0.00 0.00 0.00 0.00 0.00 0.00 0.00 0.00 0.00 0.00 0.00 0.00 0.00 0.00 0.00 0.00 0.00 0.00 0.00 0.00 0.00 0.01 0.02 0.23 0.55 0.44 0.61 0.50 0.24 0.48 0.75 0.79
0.00 0.00 0.00 0.00 0.00 0.00 0.00 0.00 0.00 0.00 0.00 0.00 0.00 0.00 0.00 0.00 0.00 0.00 0.00 0.00 0.00 0.00 0.00 0.00 0.00 0.00 0.00 0.00 0.00 0.00 0.02 0.05 0.02 0.06 0.04 0.01 0.12 0.28 0.32 0.33 0.42 0.89 1.77 1.45 1.07
0.00 0.00 0.00 0.00 0.00 0.00 0.00 0.00 0.00 0.00 0.00 0.00 0.00 0.00 0.00 0.00 0.00 0.00 0.00 0.00 0.00 0.00 0.00 0.00 0.00 0.00 0.00 0.00 0.01 0.04 0.06 0.07 0.02 0.01 0.04 0.21 0.22 0.32 0.44 0.73 1.45 2.57 2.08 1.43 1.41
0.00 0.00 0.00 0.00 0.00 0.00 0.01 0.00 0.03 0.02 0.02 0.02 0.00 0.00 0.00 0.00 0.00 0.00 0.00 0.00 0.00 0.00 0.00 0.00 0.01 0.00 0.01 0.01 0.00 0.00 0.00 0.01 0.02 0.02 0.05 0.23 0.22 0.49 0.64 0.85 2.01 3.36 2.99 2.69 2.53
0.00 0.01 0.06 0.07 0.05 0.02 0.06 0.03 0.06 0.19 0.17 0.10 0.07 0.00 0.00 0.00 0.00 0.00 0.00 0.00 0.00 0.00 0.00 0.00 0.00 0.01 0.01 0.02 0.01 0.01 0.00 0.02 0.01 0.04 0.16 0.09 0.22 1.01 1.62 1.02 1.36 1.69 3.77 3.61 2.61
0.04 0.09 0.06 0.02 0.07 0.06 0.10 0.30 0.35 0.16 0.21 0.20 0.22 0.22 0.02 0.00 0.00 0.00 0.00 0.00 0.00 0.00 0.00 0.00 0.00 0.00 0.01 0.02 0.01 0.03 0.09 0.04 0.02 0.02 0.03 0.04 0.18 0.82 0.66 0.46 0.65 0.90 1.65 2.14 2.08
0.15 0.16 0.19 0.03 0.00 0.15 0.24 0.25 0.28 0.20 0.09 0.23 0.15 0.24 0.08 0.02 0.01 0.00 0.00 0.00 0.00 0.01 0.02 0.04 0.01 0.01 0.00 0.02 0.02 0.05 0.13 0.16 0.22 0.26 0.22 0.35 0.58 0.86 0.79 1.21 0.88 0.84 0.90 0.79 0.89

GFSSW_prec_precacc_342.txt.gz
Total_Precipitation_Accumulation
0.10 0.08 0.08 0.08 0.07 0.06 0.03 0.03 0.02 0.01 0.01 0.01 0.01 0.00 0.00 0.00 0.00 0.00 0.00 0.00 0.00 0.00 0.02 0.16 0.55 0.57 0.63 1.00 1.12 1.36 2.10 0.59 0.17 0.30 0.09 0.02 0.04 0.03 0.02 0.00 0.02 0.05 0.15 0.03 0.01
0.10 0.08 0.08 0.08 0.06 0.05 0.04 0.03 0.01 0.01 0.01 0.01 0.01 0.00 0.00 0.00 0.00 0.00 0.00 0.00 0.00 0.00 0.07 0.20 0.46 0.42 1.69 1.25 1.06 1.25 1.10 0.22 0.13 0.14 0.10 0.03 0.03 0.03 0.04 0.04 0.11 0.00 0.02 0.00 0.00
0.08 0.08 0.07 0.07 0.06 0.05 0.04 0.03 0.01 0.01 0.00 0.01 0.01 0.00 0.00 0.00 0.00 0.00 0.00 0.01 0.01 0.05 0.09 0.26 0.42 0.34 1.15 0.69 1.11 0.56 0.39 0.05 0.05 0.02 0.04 0.07 0.01 0.03 0.07 0.17 0.12 0.00 0.00 0.00 0.00
0.08 0.07 0.07 0.07 0.06 0.06 0.04 0.02 0.01 0.00 0.01 0.01 0.00 0.00 0.00 0.00 0.00 0.01 0.04 0.02 0.02 0.04 0.07 0.46 1.05 1.30 0.74 1.34 0.43 0.42 0.08 0.02 0.02 0.03 0.05 0.04 0.01 0.03 0.02 0.04 0.00 0.00 0.00 0.00 0.01
0.07 0.07 0.06 0.06 0.06 0.05 0.04 0.02 0.01 0.00 0.01 0.01 0.00 0.00 0.00 0.00 0.00 0.01 0.01 0.00 0.02 0.01 0.07 0.39 0.87 0.65 0.37 0.32 0.25 0.21 0.05 0.02 0.01 0.07 0.04 0.01 0.03 0.02 0.01 0.04 0.04 0.00 0.00 0.00 0.00
0.07 0.06 0.05 0.06 0.06 0.04 0.03 0.02 0.01 0.00 0.00 0.00 0.00 0.00 0.00 0.00 0.00 0.01 0.00 0.00 0.02 0.03 0.08 0.05 0.05 0.07 0.28 0.13 0.20 0.10 0.04 0.03 0.03 0.04 0.03 0.03 0.06 0.01 0.01 0.05 0.06 0.02 0.00 0.00 0.01
0.07 0.06 0.06 0.05 0.05 0.04 0.02 0.01 0.00 0.00 0.00 0.00 0.00 0.00 0.00 0.00 0.00 0.00 0.00 0.00 0.00 0.01 0.06 0.05 0.01 0.04 0.09 0.19 0.15 0.06 0.08 0.04 0.03 0.05 0.03 0.03 0.05 0.06 0.07 0.02 0.02 0.02 0.06 0.12 0.15
0.06 0.06 0.06 0.05 0.04 0.03 0.01 0.00 0.00 0.00 0.00 0.00 0.00 0.00 0.00 0.00 0.00 0.00 0.00 0.00 0.00 0.01 0.00 0.00 0.00 0.03 0.15 0.18 0.26 0.18 0.29 0.22 0.10 0.05 0.07 0.10 0.36 0.06 0.02 0.02 0.05 0.12 0.21 0.32 0.31
0.06 0.06 0.05 0.05 0.04 0.03 0.01 0.00 0.00 0.00 0.00 0.00 0.00 0.00 0.00 0.00 0.00 0.00 0.00 0.00 0.00 0.00 0.00 0.00 0.00 0.01 0.09 0.27 0.44 0.24 0.62 0.44 0.26 0.06 0.17 0.22 0.59 0.18 0.03 0.07 0.05 0.17 0.59 0.48 0.36
0.06 0.06 0.04 0.05 0.04 0.03 0.00 0.00 0.00 0.00 0.00 0.00 0.00 0.00 0.00 0.00 0.00 0.00 0.00 0.00 0.00 0.00 0.00 0.00 0.00 0.01 0.13 0.27 0.31 0.18 0.19 0.23 0.38 0.15 0.17 0.27 0.75 0.56 0.08 0.04 0.06 0.29 0.99 0.26 0.19
0.05 0.05 0.05 0.04 0.03 0.03 0.00 0.01 0.00 0.00 0.00 0.00 0.00 0.00 0.00 0.00 0.00 0.00 0.00 0.00 0.00 0.00 0.00 0.00 0.00 0.02 0.12 0.03 0.02 0.04 0.07 0.19 0.29 0.22 0.16 0.27 0.52 0.50 0.11 0.14 0.08 0.19 0.69 0.37 0.11
0.06 0.06 0.05 0.02 0.01 0.01 0.01 0.00 0.00 0.00 0.00 0.00 0.00 0.00 0.00 0.00 0.00 0.00 0.00 0.00 0.00 0.00 0.00 0.00 0.00 0.01 0.05 0.00 0.00 0.00 0.01 0.18 0.16 0.19 0.19 0.43 0.67 0.25 0.16 0.36 0.37 0.12 0.31 0.21 0.27
0.06 0.06 0.05 0.01 0.00 0.00 0.00 0.00 0.00 0.00 0.00 0.00 0.00 0.00 0.00 0.00 0.00 0.00 0.00 0.00 0.00 0.00 0.00 0.00 0.00 0.01 0.00 0.00 0.00 0.00 0.01 0.04 0.10 0.08 0.11 0.15 0.21 0.27 0.26 0.22 0.15 0.09 0.05 0.15 0.30
0.06 0.07 0.05 0.01 0.00 0.00 0.00 0.00 0.00 0.00 0.00 0.00 0.00 0.00 0.00 0.00 0.00 0.00 0.00 0.00 0.00 0.00 0.00 0.00 0.00 0.00 0.00 0.00 0.00 0.00 0.01 0.00 0.03 0.05 0.12 0.09 0.54 0.37 0.40 0.20 0.25 0.14 0.09 0.05 0.11
0.07 0.07 0.07 0.01 0.00 0.00 0.00 0.00 0.00 0.00 0.00 0.00 0.00 0.00 0.00 0.00 0.00 0.00 0.00 0.00 0.00 0.00 0.00 0.00 0.00 0.00 0.00 0.00 0.00 0.00 0.00 0.00 0.00 0.00 0.01 0.03 0.14 0.28 0.43 0.48 0.58 0.28 0.21 0.18 0.12
0.06 0.09 0.09 0.00 0.00 0.00 0.00 0.00 0.00 0.00 0.00 0.00 0.00 0.00 0.00 0.00 0.00 0.00 0.00 0.00 0.00 0.00 0.00 0.00 0.00 0.00 0.00 0.00 0.00 0.00 0.00 0.00 0.00 0.00 0.02 0.02 0.03 0.27 0.25 0.53 0.50 0.47 0.19 0.23 0.60
0.03 0.04 0.07 0.00 0.00 0.00 0.00 0.00 0.00 0.00 0.00 0.00 0.00 0.00 0.00 0.00 0.00 0.00 0.00 0.00 0.00 0.00 0.00 0.00 0.00 0.00 0.00 0.00 0.00 0.00 0.00 0.00 0.00 0.00 0.07 0.03 0.02 0.04 0.03 0.05 0.33 0.26 0.48 1.24 0.82
0.00 0.00 0.00 0.00 0.00 0.00 0.00 0.00 0.00 0.00 0.00 0.00 0.00 0.00 0.00 0.00 0.00 0.00 0.00 0.00 0.00 0.00 0.00 0.00 0.00 0.00 0.00 0.00 0.00 0.00 0.00 0.00 0.00 0.01 0.01 0.01 0.01 0.02 0.07 0.07 0.11 0.36 0.96 1.51 0.76
0.00 0.00 0.00 0.00 0.00 0.00 0.00 0.00 0.00 0.00 0.00 0.00 0.00 0.00 0.00 0.00 0.00 0.00 0.00 0.00 0.00 0.00 0.00 0.00 0.00 0.00 0.00 0.00 0.00 0.00 0.00 0.00 0.00 0.00 0.00 0.00 0.03 0.05 0.07 0.17 0.26 0.46 0.66 0.85 1.02
0.00 0.00 0.00 0.00 0.00 0.00 0.00 0.00 0.00 0.00 0.00 0.00 0.00 0.00 0.00 0.00 0.00 0.00 0.00 0.00 0.00 0.00 0.00 0.00 0.00 0.00 0.00 0.00 0.00 0.00 0.00 0.00 0.00 0.00 0.00 0.00 0.04 0.41 0.43 0.43 0.70 0.33 0.37 0.73 0.84
0.00 0.00 0.00 0.00 0.00 0.00 0.00 0.00 0.00 0.00 0.00 0.00 0.00 0.00 0.00 0.00 0.00 0.00 0.00 0.00 0.00 0.00 0.00 0.00 0.00 0.00 0.00 0.00 0.00 0.00 0.00 0.00 0.00 0.00 0.01 0.02 0.23 0.55 0.44 0.61 0.50 0.24 0.48 0.75 0.79
0.00 0.00 0.00 0.00 0.00 0.00 0.00 0.00 0.00 0.00 0.00 0.00 0.00 0.00 0.00 0.00 0.00 0.00 0.00 0.00 0.00 0.00 0.00 0.00 0.00 0.00 0.00 0.00 0.00 0.00 0.02 0.05 0.02 0.06 0.04 0.01 0.12 0.28 0.32 0.33 0.42 0.89 1.77 1.45 1.07
0.00 0.00 0.00 0.00 0.00 0.00 0.00 0.00 0.00 0.00 0.00 0.00 0.00 0.00 0.00 0.00 0.00 0.00 0.00 0.00 0.00 0.00 0.00 0.00 0.00 0.00 0.00 0.00 0.01 0.04 0.06 0.07 0.02 0.01 0.04 0.21 0.22 0.32 0.44 0.73 1.45 2.57 2.08 1.43 1.41
0.00 0.00 0.00 0.00 0.00 0.00 0.01 0.00 0.03 0.02 0.02 0.02 0.00 0.00 0.00 0.00 0.00 0.00 0.00 0.00 0.00 0.00 0.00 0.00 0.01 0.00 0.01 0.01 0.00 0.00 0.00 0.01 0.02 0.02 0.05 0.23 0.22 0.49 0.64 0.85 2.01 3.36 2.99 2.69 2.53
0.00 0.01 0.06 0.07 0.05 0.02 0.06 0.03 0.06 0.19 0.17 0.10 0.07 0.00 0.00 0.00 0.00 0.00 0.00 0.00 0.00 0.00 0.00 0.00 0.00 0.01 0.01 0.02 0.01 0.01 0.00 0.02 0.01 0.04 0.16 0.09 0.22 1.01 1.62 1.02 1.36 1.69 3.78 3.63 2.66
0.04 0.09 0.06 0.02 0.07 0.06 0.10 0.30 0.35 0.16 0.21 0.20 0.22 0.22 0.02 0.00 0.00 0.00 0.00 0.00 0.00 0.00 0.00 0.00 0.00 0.00 0.01 0.02 0.01 0.03 0.09 0.04 0.02 0.02 0.03 0.04 0.18 0.82 0.66 0.46 0.65 0.94 1.79 2.46 2.41
0.15 0.16 0.19 0.03 0.00 0.15 0.24 0.25 0.28 0.20 0.09 0.23 0.15 0.24 0.08 0.02 0.01 0.00 0.00 0.00 0.00 0.01 0.02 0.04 0.01 0.01 0.00 0.02 0.02 0.05 0.13 0.16 0.22 0.26 0.22 0.35 0.58 0.86 0.79 1.21 0.88 0.84 0.92 0.89 1.15

GFSSW_prec_precacc_345.txt.gz
Total_Precipitation_Accumulation
0.10 0.08 0.08 0.08 0.07 0.06 0.03 0.03 0.02 0.01 0.01 0.01 0.01 0.00 0.00 0.00 0.00 0.00 0.00 0.00 0.00 0.00 0.02 0.16 0.55 0.57 0.63 1.00 1.12 1.36 2.10 0.59 0.17 0.30 0.09 0.02 0.04 0.03 0.02 0.00 0.02 0.05 0.15 0.03 0.01
0.10 0.08 0.08 0.08 0.06 0.05 0.04 0.03 0.01 0.01 0.01 0.01 0.01 0.00 0.00 0.00 0.00 0.00 0.00 0.00 0.00 0.00 0.07 0.20 0.46 0.42 1.69 1.25 1.06 1.25 1.10 0.22 0.13 0.14 0.10 0.03 0.03 0.03 0.04 0.04 0.11 0.00 0.02 0.00 0.00
0.08 0.08 0.07 0.07 0.06 0.05 0.04 0.03 0.01 0.01 0.00 0.01 0.01 0.00 0.00 0.00 0.00 0.00 0.00 0.01 0.01 0.05 0.09 0.26 0.42 0.34 1.15 0.69 1.11 0.56 0.39 0.05 0.05 0.02 0.04 0.07 0.01 0.03 0.07 0.17 0.12 0.00 0.00 0.00 0.00
0.08 0.07 0.07 0.07 0.06 0.06 0.04 0.02 0.01 0.00 0.01 0.01 0.00 0.00 0.00 0.00 0.00 0.01 0.04 0.02 0.02 0.04 0.07 0.46 1.05 1.30 0.75 1.34 0.43 0.42 0.08 0.02 0.02 0.03 0.05 0.04 0.01 0.03 0.02 0.04 0.00 0.00 0.00 0.00 0.01
0.07 0.07 0.06 0.06 0.06 0.05 0.04 0.02 0.01 0.00 0.01 0.01 0.00 0.00 0.00 0.00 0.00 0.01 0.01 0.00 0.02 0.01 0.07 0.39 0.87 0.65 0.37 0.32 0.25 0.21 0.05 0.02 0.01 0.07 0.04 0.01 0.03 0.02 0.01 0.04 0.04 0.00 0.00 0.00 0.00
0.07 0.06 0.05 0.06 0.06 0.04 0.03 0.02 0.01 0.00 0.00 0.00 0.00 0.00 0.00 0.00 0.00 0.01 0.00 0.00 0.02 0.03 0.08 0.05 0.05 0.07 0.28 0.13 0.20 0.10 0.04 0.03 0.03 0.04 0.04 0.03 0.06 0.01 0.01 0.05 0.06 0.02 0.00 0.00 0.01
0.07 0.06 0.06 0.05 0.05 0.04 0.02 0.01 0.00 0.00 0.00 0.00 0.00 0.00 0.00 0.00 0.00 0.00 0.00 0.00 0.01 0.03 0.07 0.05 0.01 0.04 0.09 0.19 0.15 0.06 0.08 0.04 0.03 0.05 0.03 0.03 0.05 0.06 0.07 0.02 0.02 0.02 0.06 0.12 0.15
0.06 0.06 0.06 0.05 0.04 0.03 0.01 0.00 0.00 0.00 0.00 0.00 0.00 0.00 0.00 0.00 0.00 0.00 0.00 0.00 0.01 0.01 0.01 0.00 0.00 0.03 0.15 0.18 0.26 0.18 0.29 0.23 0.10 0.05 0.07 0.10 0.36 0.06 0.02 0.02 0.05 0.12 0.21 0.32 0.31
0.06 0.06 0.05 0.05 0.04 0.03 0.01 0.00 0.00 0.00 0.00 0.00 0.00 0.00 0.00 0.00 0.00 0.00 0.00 0.00 0.00 0.00 0.00 0.00 0.00 0.02 0.10 0.27 0.44 0.24 0.62 0.44 0.26 0.06 0.17 0.22 0.59 0.18 0.03 0.07 0.05 0.17 0.59 0.48 0.36
0.06 0.06 0.04 0.05 0.04 0.03 0.00 0.00 0.00 0.00 0.00 0.00 0.00 0.00 0.00 0.00 0.00 0.00 0.00 0.00 0.00 0.00 0.00 0.00 0.01 0.02 0.14 0.28 0.31 0.18 0.19 0.23 0.38 0.15 0.17 0.27 0.75 0.56 0.08 0.04 0.06 0.29 0.99 0.26 0.19
0.05 0.05 0.05 0.04 0.03 0.03 0.00 0.01 0.00 0.00 0.00 0.00 0.00 0.00 0.00 0.00 0.00 0.00 0.00 0.00 0.00 0.00 0.00 0.00 0.05 0.07 0.12 0.03 0.02 0.04 0.07 0.19 0.29 0.22 0.16 0.27 0.52 0.50 0.11 0.14 0.08 0.19 0.69 0.37 0.11
0.06 0.06 0.05 0.02 0.01 0.01 0.01 0.00 0.00 0.00 0.00 0.00 0.00 0.00 0.00 0.00 0.00 0.00 0.00 0.00 0.00 0.00 0.00 0.00 0.07 0.05 0.06 0.00 0.00 0.00 0.01 0.18 0.16 0.19 0.19 0.43 0.67 0.25 0.16 0.36 0.37 0.12 0.31 0.21 0.27
0.06 0.06 0.05 0.01 0.00 0.00 0.00 0.00 0.00 0.00 0.00 0.00 0.00 0.00 0.00 0.00 0.00 0.00 0.00 0.00 0.00 0.00 0.00 0.01 0.02 0.02 0.01 0.00 0.00 0.00 0.01 0.04 0.10 0.08 0.11 0.15 0.21 0.27 0.26 0.22 0.15 0.09 0.05 0.15 0.30
0.06 0.07 0.05 0.01 0.00 0.00 0.00 0.00 0.00 0.00 0.00 0.00 0.00 0.00 0.00 0.00 0.00 0.00 0.00 0.00 0.00 0.00 0.00 0.00 0.00 0.00 0.00 0.00 0.00 0.00 0.01 0.00 0.03 0.05 0.12 0.09 0.54 0.37 0.40 0.20 0.25 0.14 0.09 0.05 0.11
0.07 0.07 0.07 0.01 0.00 0.00 0.00 0.00 0.00 0.00 0.00 0.00 0.00 0.00 0.00 0.00 0.00 0.00 0.00 0.00 0.00 0.00 0.00 0.00 0.00 0.00 0.00 0.00 0.00 0.00 0.00 0.00 0.00 0.00 0.01 0.03 0.14 0.28 0.43 0.48 0.58 0.28 0.21 0.18 0.12
0.06 0.09 0.09 0.00 0.00 0.00 0.00 0.00 0.00 0.00 0.00 0.00 0.00 0.00 0.00 0.00 0.00 0.00 0.00 0.00 0.00 0.00 0.00 0.00 0.00 0.00 0.00 0.00 0.00 0.00 0.00 0.00 0.00 0.00 0.02 0.02 0.03 0.27 0.25 0.53 0.50 0.47 0.19 0.23 0.60
0.03 0.04 0.07 0.00 0.00 0.00 0.00 0.00 0.00 0.00 0.00 0.00 0.00 0.00 0.00 0.00 0.00 0.00 0.00 0.00 0.00 0.00 0.00 0.00 0.00 0.00 0.00 0.00 0.00 0.00 0.00 0.00 0.00 0.00 0.07 0.03 0.02 0.04 0.03 0.05 0.33 0.26 0.48 1.24 0.82
0.00 0.00 0.00 0.00 0.00 0.00 0.00 0.00 0.00 0.00 0.00 0.00 0.00 0.00 0.00 0.00 0.00 0.00 0.00 0.00 0.00 0.00 0.00 0.00 0.00 0.00 0.00 0.00 0.00 0.00 0.00 0.00 0.00 0.01 0.01 0.01 0.01 0.02 0.07 0.07 0.11 0.36 0.96 1.51 0.76
0.00 0.00 0.00 0.00 0.00 0.00 0.00 0.00 0.00 0.00 0.00 0.00 0.00 0.00 0.00 0.00 0.00 0.00 0.00 0.00 0.00 0.00 0.00 0.00 0.00 0.00 0.00 0.00 0.00 0.00 0.00 0.00 0.00 0.00 0.00 0.00 0.03 0.05 0.07 0.17 0.26 0.46 0.66 0.85 1.02
0.00 0.00 0.00 0.00 0.00 0.00 0.00 0.00 0.00 0.00 0.00 0.00 0.00 0.00 0.00 0.00 0.00 0.00 0.00 0.00 0.00 0.00 0.00 0.00 0.00 0.00 0.00 0.00 0.00 0.00 0.00 0.00 0.00 0.00 0.00 0.00 0.04 0.41 0.43 0.43 0.70 0.33 0.37 0.73 0.84
0.00 0.00 0.00 0.00 0.00 0.00 0.00 0.00 0.00 0.00 0.00 0.00 0.00 0.00 0.00 0.00 0.00 0.00 0.00 0.00 0.00 0.00 0.00 0.00 0.00 0.00 0.00 0.00 0.00 0.00 0.00 0.00 0.00 0.00 0.01 0.02 0.23 0.55 0.44 0.61 0.50 0.24 0.48 0.75 0.79
0.00 0.00 0.00 0.00 0.00 0.00 0.00 0.00 0.00 0.00 0.00 0.00 0.00 0.00 0.00 0.00 0.00 0.00 0.00 0.00 0.00 0.00 0.00 0.00 0.00 0.00 0.00 0.00 0.00 0.00 0.02 0.05 0.02 0.06 0.04 0.01 0.12 0.28 0.32 0.33 0.42 0.89 1.77 1.45 1.07
0.00 0.00 0.00 0.00 0.00 0.00 0.00 0.00 0.00 0.00 0.00 0.00 0.00 0.00 0.00 0.00 0.00 0.00 0.00 0.00 0.00 0.00 0.00 0.00 0.00 0.00 0.00 0.00 0.01 0.04 0.06 0.07 0.02 0.01 0.04 0.21 0.22 0.32 0.44 0.73 1.45 2.57 2.08 1.43 1.41
0.00 0.00 0.00 0.00 0.00 0.00 0.01 0.00 0.03 0.02 0.02 0.02 0.00 0.00 0.00 0.00 0.00 0.00 0.00 0.00 0.00 0.00 0.00 0.00 0.01 0.00 0.01 0.01 0.00 0.00 0.00 0.01 0.02 0.02 0.05 0.23 0.22 0.49 0.64 0.85 2.01 3.36 2.99 2.69 2.53
0.00 0.01 0.06 0.07 0.05 0.02 0.06 0.03 0.06 0.19 0.17 0.10 0.07 0.00 0.00 0.00 0.00 0.00 0.00 0.00 0.00 0.00 0.00 0.00 0.00 0.01 0.01 0.02 0.01 0.01 0.00 0.02 0.01 0.04 0.16 0.09 0.22 1.01 1.62 1.02 1.36 1.69 3.78 3.63 2.66
0.04 0.09 0.06 0.02 0.07 0.06 0.10 0.30 0.35 0.16 0.21 0.20 0.22 0.22 0.02 0.00 0.00 0.00 0.00 0.00 0.00 0.00 0.00 0.00 0.00 0.00 0.01 0.02 0.01 0.03 0.09 0.04 0.02 0.02 0.03 0.04 0.18 0.82 0.66 0.46 0.65 0.94 1.79 2.46 2.41
0.15 0.16 0.19 0.03 0.00 0.15 0.24 0.25 0.28 0.20 0.09 0.23 0.15 0.24 0.08 0.02 0.01 0.00 0.00 0.00 0.00 0.01 0.02 0.04 0.01 0.01 0.00 0.02 0.02 0.05 0.13 0.16 0.22 0.26 0.22 0.35 0.58 0.86 0.79 1.21 0.88 0.84 0.92 0.89 1.15